Location: Fernhill
(41.0167°S, 175.6333°E)
Time: 17:08:44
(UTC+00:00)

Meteor 2-6 Rocket - Pass Details

Date: 20 February 2026
Orbit: 804 x 913 km, 81.3° (Epoch: 8 March)

Event Time Altitude Azimuth Distance (km) Brightness Sun altitude
Exits shadow 10:41:54 49° 264° (W) 1,144 5.0 -32.3°
Maximum altitude 10:42:08 49° 256° (WSW) 1,141 5.0 -32.4°
Drops below altitude 10° 10:47:55 10° 181° (S) 2,613 7.4 -32.9°
Sets 10:50:32 0° 175° (S) 3,571 8.2 -33.2°
